Location: State Camp
(41.2367°N, 77.7828°W)
Time: 15:06:59
(UTC-04:00)

ADEOS Rocket - Visible Passes

Search period start: 19 April 2015 00:00
Search period end: 29 April 2015 00:00
Orbit: 858 x 1308 km, 98.7° (Epoch: 18 April)

Date Brightness Start Highest point End Pass type
(mag) Time Alt. Az. Time Alt. Az. Time Alt. Az.
19 Apr 4.7 21:12:30 10° SSW 21:19:06 37° W 21:25:04 10° NNW visible
20 Apr 3.4 20:22:54 10° SSE 20:30:04 83° WSW 20:36:32 10° NNW visible
20 Apr 5.8 22:13:11 10° WSW 22:16:27 13° W 22:19:07 10° WNW visible
21 Apr 4.9 21:20:42 10° SSW 21:26:57 32° W 21:32:34 10° NW visible
22 Apr 3.6 20:30:49 10° S 20:37:51 72° WSW 20:44:12 10° NNW visible
22 Apr 6.0 22:23:08 10° W 22:24:24 10° W 22:25:03 10° W visible
23 Apr 5.1 21:28:59 10° SSW 21:34:48 27° W 21:40:01 10° NW visible
24 Apr 3.8 20:38:45 10° S 20:45:38 62° W 20:51:50 10° NNW visible
25 Apr 5.3 21:37:21 10° SW 21:42:39 23° W 21:47:23 10° NW visible
26 Apr 4.0 20:46:45 10° S 20:53:25 53° W 20:59:26 10° NNW visible
27 Apr 5.5 21:45:50 10° SW 21:50:31 19° W 21:54:39 10° NW visible
28 Apr 4.2 20:54:47 10° S 21:01:12 45° W 21:07:00 10° NNW visible
